OpenBCM V1.13 (Linux)

Packet Radio Mailbox

DB0FHN

[JN59NK Nuernberg]

 Login: GUEST





  
UA9FBV > KEPS     08.03.03 10:38l 206 Lines 5444 Bytes #999 (0) @ AMSAT
BID : ORB03065.W
Read: DB0FHN GUEST
Subj: Orbital Elements  03065.WEATHER
Path: DB0FHN<DB0RGB<OK0PPL<RZ6HXA<UA9FBV
Sent: 030307/0453Z @:UA9FBV.PRM.RUS.AS #:30646 [Perm] FBB7.00i $:ORB03065.W
From: UA9FBV@UA9FBV.PRM.RUS.AS
To  : KEPS@AMSAT

HR AMSAT ORBITAL ELEMENTS FOR WEATHER SATELLITES
FROM WA5QGD FORT WORTH,TX March 6, 2003
SEND SUBSCRIBE/UNSUBSCRIBE TO majordomo@amsat.org ONLY
BID: ORB03065.W
TO ALL RADIO AMATEURS BT

Satellite: NOAA-10
Catalog number: 16969
Epoch time:      03065.74458110
Element set:     687
Inclination:       98.7315 deg
RA of node:        59.8232 deg
Eccentricity:    0.0013395
Arg of perigee:    42.6111 deg
Mean anomaly:     317.6107 deg
Mean motion:   14.27069962 rev/day
Decay rate:       1.47e-06 rev/day^2
Epoch rev:           85621
Checksum:              310

Satellite: NOAA-11
Catalog number: 19531
Epoch time:      03065.70977611
Element set:     524
Inclination:       98.8994 deg
RA of node:       147.0366 deg
Eccentricity:    0.0011902
Arg of perigee:   153.1128 deg
Mean anomaly:     207.0669 deg
Mean motion:   14.14544608 rev/day
Decay rate:       1.68e-06 rev/day^2
Epoch rev:           74508
Checksum:              308

Satellite: NOAA-12
Catalog number: 21263
Epoch time:      03065.70239189
Element set:     993
Inclination:       98.6280 deg
RA of node:        55.0596 deg
Eccentricity:    0.0012857
Arg of perigee:   339.6134 deg
Mean anomaly:      20.4531 deg
Mean motion:   14.25091330 rev/day
Decay rate:       3.10e-06 rev/day^2
Epoch rev:           61351
Checksum:              279

Satellite: MET-3/5
Catalog number: 21655
Epoch time:      03065.40028186
Element set:     504
Inclination:       82.5548 deg
RA of node:        27.6729 deg
Eccentricity:    0.0013417
Arg of perigee:   153.9027 deg
Mean anomaly:     206.2775 deg
Mean motion:   13.16980686 rev/day
Decay rate:        5.1e-07 rev/day^2
Epoch rev:           55556
Checksum:              307

Satellite: MET-2/21
Catalog number: 22782
Epoch time:      03065.08323643
Element set:     534
Inclination:       82.5500 deg
RA of node:       202.5898 deg
Eccentricity:    0.0021215
Arg of perigee:   304.2104 deg
Mean anomaly:      55.7071 deg
Mean motion:   13.83532935 rev/day
Decay rate:        4.3e-07 rev/day^2
Epoch rev:           48023
Checksum:              262

Satellite: OKEAN-4
Catalog number: 23317
Epoch time:      03065.45953456
Element set:     188
Inclination:       82.5417 deg
RA of node:       314.1368 deg
Eccentricity:    0.0023524
Arg of perigee:     3.3189 deg
Mean anomaly:     356.8178 deg
Mean motion:   14.80953911 rev/day
Decay rate:      1.573e-05 rev/day^2
Epoch rev:           45245
Checksum:              309

Satellite: NOAA-14
Catalog number: 23455
Epoch time:      03065.68633116
Element set:     546
Inclination:       99.1864 deg
RA of node:        84.6777 deg
Eccentricity:    0.0009298
Arg of perigee:   179.8645 deg
Mean anomaly:     180.2530 deg
Mean motion:   14.13302459 rev/day
Decay rate:       1.17e-06 rev/day^2
Epoch rev:           42175
Checksum:              320

Satellite: SICH-1
Catalog number: 23657
Epoch time:      03065.87951692
Element set:     991
Inclination:       82.5271 deg
RA of node:        94.5189 deg
Eccentricity:    0.0024614
Arg of perigee:   343.6442 deg
Mean anomaly:      16.3979 deg
Mean motion:   14.79997062 rev/day
Decay rate:      1.452e-05 rev/day^2
Epoch rev:           40464
Checksum:              336

Satellite: NOAA-15
Catalog number: 25338
Epoch time:      03065.68605261
Element set:      30
Inclination:       98.5491 deg
RA of node:        87.3988 deg
Eccentricity:    0.0009603
Arg of perigee:   271.9983 deg
Mean anomaly:      88.0096 deg
Mean motion:   14.24251192 rev/day
Decay rate:       1.69e-06 rev/day^2
Epoch rev:           25009
Checksum:              318

Satellite: RESURS
Catalog number: 25394
Epoch time:      03065.23595597
Element set:     463
Inclination:       98.6296 deg
RA of node:       142.8731 deg
Eccentricity:    0.0002362
Arg of perigee:    70.0301 deg
Mean anomaly:     290.1132 deg
Mean motion:   14.23882662 rev/day
Decay rate:       1.27e-06 rev/day^2
Epoch rev:           24176
Checksum:              284

Satellite: FENGYUN1
Catalog number: 25730
Epoch time:      03065.88334892
Element set:     781
Inclination:       98.6330 deg
RA of node:        89.6717 deg
Eccentricity:    0.0013821
Arg of perigee:   319.2949 deg
Mean anomaly:      40.7189 deg
Mean motion:   14.11736560 rev/day
Decay rate:       1.04e-06 rev/day^2
Epoch rev:           19693
Checksum:              317

Satellite: OKEAN-0
Catalog number: 25860
Epoch time:      03064.92360009
Element set:    0058
Inclination:      097.8621 deg
RA of node:       111.9634 deg
Eccentricity:    0.0001813
Arg of perigee:   052.0313 deg
Mean anomaly:     308.1058 deg
Mean motion:   14.72626095 rev/day
Decay rate:       6.19e-06 rev/day^2
Epoch rev:           19519
Checksum:              279

Satellite: NOAA-16
Catalog number: 26536
Epoch time:      03065.59747461
Element set:     235
Inclination:       98.9071 deg
RA of node:        13.7644 deg
Eccentricity:    0.0009776
Arg of perigee:   260.3680 deg
Mean anomaly:      99.6362 deg
Mean motion:   14.11913403 rev/day
Decay rate:       1.48e-06 rev/day^2
Epoch rev:           12641
Checksum:              308

Satellite: NOAA-17
Catalog number: 27453
Epoch time:      03065.73437888
Element set:     328
Inclination:       98.7541 deg
RA of node:       136.8589 deg
Eccentricity:    0.0011202
Arg of perigee:   313.8517 deg
Mean anomaly:      46.1735 deg
Mean motion:   14.23302362 rev/day
Decay rate:       2.58e-06 rev/day^2
Epoch rev:            3626
Checksum:              306



Read previous mail | Read next mail


 24.06.2026 21:33:30lGo back Go up